Pecos, TX

12:35 PM CDT on June 22, 2017 (GMT -0500)
Pecos Municipal

Weather History for KPEQ - September, 2013

Change the Weather History Date:

Monday, September 9, 2013

  Actual Average Record
Temperature  
Mean Temperature 79 °F -  
Max Temperature 90 °F 93 °F 105 °F (1984)
Min Temperature 68 °F 64 °F 44 °F (2004)
Cooling Degree Days 14    
Growing Degree Days 29 (Base 50)    
Moisture  
Dew Point 62 °F    
Average Humidity 62    
Maximum Humidity 83    
Minimum Humidity 36    
Precipitation  
Precipitation 0.00 in - - ()
Sea Level Pressure  
Sea Level Pressure 29.94 in    
Wind  
Wind Speed 12 mph (ESE)    
Max Wind Speed 23 mph    
Max Gust Speed 43 mph    
Visibility 10 miles    
Events Rain , Thunderstorm    
Averages and records for this station are not official NWS values.
T = Trace of Precipitation, MM = Missing Value Source: NWS Daily Summary

Daily Weather History Graph

Daily Weather History Graph

Search for Another Location

Airport or City:

Trip Planner

Search our weather history database for the weather conditions in past years. The results will help you decide how hot, cold, wet, or windy it might be!

Date:

Astronomy

Sep. 09, 2013 Rise Set
Actual Time 7:34 AM CDT 8:07 PM CDT
Civil Twilight 7:10 AM CDT 8:31 PM CDT
Nautical Twilight 6:41 AM CDT 9:00 PM CDT
Astronomical Twilight 6:12 AM CDT 9:29 PM CDT
Moon 11:39 AM CDT (9/9) 10:46 PM CDT (9/9)
Length of Visible Light 13h 21m
Length of Day
12h 32m
Waxing Crescent, 19% of the Moon is Illuminated
Sep 9
Waxing Crescent
Sep 12
First Quarter
Sep 19
Full
Sep 26
Last Quarter
Oct 4
New

Hourly Weather History & Observations

Time (CDT) Temp. Heat Index Dew Point Humidity Pressure Visibility Wind Dir Wind Speed Gust Speed Precip Events Conditions
12:15 AM 77.5 °F - 61.2 °F 57% 29.95 in 10.0 mi SE 15.0 mph - N/A   Clear
12:35 AM 77.0 °F - 61.7 °F 59% 29.94 in 10.0 mi SE 15.0 mph - N/A   Clear
12:55 AM 76.1 °F - 61.2 °F 60% 29.94 in 10.0 mi SE 10.4 mph - N/A   Clear
1:15 AM 74.5 °F - 61.0 °F 63% 29.95 in 10.0 mi East 8.1 mph - N/A   Clear
1:35 AM 73.4 °F - 61.3 °F 66% 29.95 in 10.0 mi East 9.2 mph - N/A   Clear
1:55 AM 73.0 °F - 61.2 °F 66% 29.95 in 10.0 mi East 6.9 mph - N/A   Clear
2:15 AM 72.5 °F - 61.7 °F 69% 29.95 in 10.0 mi East 9.2 mph - N/A   Clear
2:35 AM 71.6 °F - 61.7 °F 71% 29.95 in 10.0 mi East 9.2 mph - N/A   Clear
2:55 AM 71.6 °F - 61.7 °F 71% 29.95 in 10.0 mi East 10.4 mph - N/A   Clear
3:15 AM 71.1 °F - 62.1 °F 73% 29.95 in 10.0 mi East 13.8 mph - N/A   Clear
3:35 AM 70.9 °F - 62.2 °F 74% 29.94 in 10.0 mi East 16.1 mph - N/A   Clear
3:55 AM 70.7 °F - 62.6 °F 75% 29.94 in 10.0 mi East 13.8 mph - N/A   Clear
4:15 AM 70.2 °F - 62.6 °F 77% 29.94 in 10.0 mi East 13.8 mph - N/A   Clear
4:35 AM 70.0 °F - 62.6 °F 77% 29.93 in 10.0 mi East 15.0 mph - N/A   Clear
4:55 AM 69.8 °F - 62.6 °F 78% 29.94 in 10.0 mi East 12.7 mph - N/A   Clear
5:15 AM 69.8 °F - 62.6 °F 78% 29.93 in 10.0 mi ESE 12.7 mph - N/A   Clear
5:35 AM 69.8 °F - 62.8 °F 78% 29.93 in 10.0 mi ESE 12.7 mph - N/A   Clear
5:55 AM 69.4 °F - 62.8 °F 79% 29.94 in 10.0 mi ESE 11.5 mph 16.1 mph N/A   Clear
6:15 AM 69.3 °F - 62.8 °F 80% 29.94 in 10.0 mi ESE 10.4 mph - N/A   Clear
6:35 AM 69.1 °F - 62.8 °F 80% 29.95 in 10.0 mi ESE 10.4 mph - N/A   Clear
6:55 AM 68.9 °F - 62.6 °F 80% 29.95 in 10.0 mi East 8.1 mph - N/A   Clear
7:15 AM 68.9 °F - 62.8 °F 81% 29.95 in 10.0 mi ESE 6.9 mph - N/A   Clear
7:35 AM 68.2 °F - 62.6 °F 82% 29.95 in 10.0 mi East 6.9 mph - N/A   Clear
7:55 AM 68.2 °F - 62.8 °F 83% 29.96 in 10.0 mi East 6.9 mph - N/A   Clear
8:15 AM 69.3 °F - 63.3 °F 81% 29.96 in 10.0 mi East 6.9 mph - N/A   Clear
8:35 AM 70.3 °F - 63.5 °F 79% 29.97 in 10.0 mi East 6.9 mph - N/A   Clear
8:55 AM 72.1 °F - 63.7 °F 75% 29.98 in 10.0 mi East 9.2 mph - N/A   Clear
9:15 AM 73.9 °F - 63.5 °F 70% 29.98 in 10.0 mi ESE 12.7 mph - N/A   Clear
9:35 AM 75.2 °F - 63.3 °F 66% 29.98 in 10.0 mi SE 12.7 mph - N/A   Clear
9:55 AM 76.6 °F - 63.3 °F 63% 29.98 in 10.0 mi SE 11.5 mph - N/A   Clear
10:15 AM 78.3 °F - 63.0 °F 59% 29.98 in 10.0 mi SE 11.5 mph - N/A   Clear
10:35 AM 79.7 °F - 62.6 °F 56% 29.98 in 10.0 mi ESE 11.5 mph 16.1 mph N/A   Clear
10:55 AM 81.7 °F 82.7 °F 62.6 °F 52% 29.98 in 10.0 mi ESE 12.7 mph 16.1 mph N/A   Scattered Clouds
11:15 AM 82.2 °F 83.0 °F 62.1 °F 50% 29.98 in 10.0 mi SE 9.2 mph 16.1 mph N/A   Scattered Clouds
11:35 AM 82.8 °F 83.4 °F 61.7 °F 49% 29.98 in 10.0 mi SE 12.7 mph 16.1 mph N/A   Scattered Clouds
11:55 AM 83.8 °F 84.1 °F 61.0 °F 46% 29.98 in 10.0 mi ESE 10.4 mph 17.3 mph N/A   Scattered Clouds
12:15 PM 85.1 °F 85.2 °F 60.6 °F 44% 29.98 in 10.0 mi SE 4.6 mph 11.5 mph N/A   Scattered Clouds
12:35 PM 84.2 °F 84.2 °F 59.9 °F 44% 29.97 in 10.0 mi SE 10.4 mph - N/A   Scattered Clouds
12:55 PM 85.3 °F 85.0 °F 59.5 °F 42% 29.96 in 10.0 mi ESE 10.4 mph 16.1 mph N/A   Scattered Clouds
1:15 PM 87.6 °F 87.4 °F 60.4 °F 40% 29.95 in 10.0 mi ESE 11.5 mph 19.6 mph N/A   Scattered Clouds
1:35 PM 88.9 °F 88.5 °F 60.1 °F 38% 29.95 in 10.0 mi East 13.8 mph 20.7 mph N/A   Scattered Clouds
1:55 PM 86.5 °F 86.3 °F 60.1 °F 41% 29.93 in 10.0 mi East 16.1 mph 21.9 mph N/A   Clear
2:15 PM 89.1 °F 88.5 °F 59.9 °F 37% 29.93 in 10.0 mi East 12.7 mph 24.2 mph N/A   Clear
2:35 PM 90.5 °F 90.1 °F 59.9 °F 36% 29.92 in 10.0 mi East 15.0 mph 20.7 mph N/A Thunderstorm Clear
2:55 PM 87.1 °F 86.7 °F 60.1 °F 40% 29.93 in 10.0 mi SSE 23.0 mph 29.9 mph N/A Thunderstorm Scattered Clouds
3:15 PM 75.4 °F - 59.7 °F 58% 29.93 in 2.0 mi SSE 23.0 mph 42.6 mph N/A Rain , Thunderstorm Light Thunderstorms and Rain
3:35 PM 75.2 °F - 64.9 °F 70% 29.93 in 10.0 mi SE 13.8 mph 21.9 mph N/A   Scattered Clouds
3:55 PM 77.2 °F - 64.9 °F 66% 29.91 in 10.0 mi ESE 13.8 mph 18.4 mph N/A   Light Drizzle
4:15 PM 82.4 °F 83.0 °F 61.7 °F 49% 29.91 in 10.0 mi ESE 18.4 mph - N/A   Clear
4:35 PM 81.5 °F 82.4 °F 61.5 °F 51% 29.91 in 10.0 mi ESE 19.6 mph 24.2 mph N/A   Clear
4:55 PM 82.0 °F 83.1 °F 62.8 °F 52% 29.89 in 10.0 mi ESE 18.4 mph - N/A   Clear
5:15 PM 84.0 °F 84.9 °F 63.1 °F 49% 29.89 in 10.0 mi ESE 16.1 mph - N/A   Clear
5:35 PM 84.0 °F 84.5 °F 62.1 °F 47% 29.89 in 10.0 mi ESE 15.0 mph 21.9 mph N/A   Clear
5:55 PM 84.9 °F 85.2 °F 61.2 °F 45% 29.89 in 10.0 mi ESE 15.0 mph 24.2 mph N/A   Clear
6:15 PM 85.3 °F 85.9 °F 62.4 °F 46% 29.90 in 10.0 mi ESE 15.0 mph - N/A   Clear
6:35 PM 84.0 °F 84.7 °F 62.2 °F 48% 29.90 in 10.0 mi SE 13.8 mph 19.6 mph N/A   Clear
6:55 PM 84.0 °F 84.0 °F 59.9 °F 44% 29.90 in 10.0 mi SE 17.3 mph - N/A   Clear
7:15 PM 82.9 °F 82.8 °F 58.8 °F 44% 29.89 in 10.0 mi SE 16.1 mph 23.0 mph N/A   Clear
7:35 PM 81.7 °F 82.0 °F 59.5 °F 47% 29.90 in 10.0 mi SSE 16.1 mph - N/A   Scattered Clouds
7:55 PM 80.1 °F 81.2 °F 61.9 °F 54% 29.91 in 10.0 mi South 11.5 mph - N/A   Scattered Clouds
8:15 PM 78.6 °F - 62.1 °F 57% 29.91 in 10.0 mi SSE 9.2 mph - N/A   Clear
8:35 PM 77.4 °F - 62.1 °F 59% 29.91 in 10.0 mi SSE 9.2 mph - N/A   Clear
8:55 PM 76.3 °F - 62.6 °F 62% 29.92 in 10.0 mi SSE 8.1 mph - N/A   Clear
9:15 PM 75.4 °F - 62.6 °F 64% 29.93 in 10.0 mi SE 8.1 mph - N/A   Clear
9:35 PM 74.5 °F - 63.0 °F 67% 29.93 in 10.0 mi SE 8.1 mph - N/A   Clear
9:55 PM 74.1 °F - 63.0 °F 68% 29.94 in 10.0 mi SSE 5.8 mph - N/A   Clear
10:15 PM 73.9 °F - 63.1 °F 69% 29.95 in 10.0 mi SSE 4.6 mph - N/A   Clear
10:35 PM 73.6 °F - 63.5 °F 71% 29.96 in 10.0 mi SE 4.6 mph - N/A   Clear
10:55 PM 72.7 °F - 63.1 °F 72% 29.96 in 10.0 mi SE 3.5 mph - N/A   Clear
11:15 PM 72.5 °F - 63.1 °F 72% 29.96 in 10.0 mi East 3.5 mph - N/A   Clear
11:35 PM 72.0 °F - 63.7 °F 75% 29.97 in 10.0 mi East 5.8 mph - N/A   Clear
11:55 PM 71.8 °F - 63.9 °F 76% 29.97 in 10.0 mi East 5.8 mph - N/A   Clear